• In Russia
  • List of Countries
  • For 7 days
  • Water Temperature
  • Satellite Maps
  • Weather Map
  • Weather Widgets
  • user-avatar
    Login

    Hourly Weather Tiszakecske

    Today, 24 August, Thursday

    Time Temperature Precipitation Wind Pressure Humidity
    00:00 +16°C° 0 mm 1 mps 756 mmHg 47%
    01:00 +16°C° 0 mm 1 mps 756 mmHg 48%
    02:00 +15°C° 0 mm 1 mps 756 mmHg 49%
    03:00 +15°C° 0 mm 1 mps 756 mmHg 50%
    04:00 +15°C° 0 mm 1 mps 756 mmHg 51%
    05:00 +16°C° 0 mm 1 mps 756 mmHg 47%
    06:00 +19°C° 0 mm 1 mps 757 mmHg 43%
    07:00 +20°C° 0 mm 1 mps 757 mmHg 40%
    08:00 +21°C° 0 mm 2 mps 757 mmHg 36%
    09:00 +24°C° 0 mm 2 mps 757 mmHg 32%
    10:00 +26°C° 0 mm 2 mps 757 mmHg 28%
    11:00 +28°C° 0 mm 3 mps 757 mmHg 27%
    12:00 +29°C° 0 mm 3 mps 757 mmHg 25%
    13:00 +30°C° 0 mm 3 mps 756 mmHg 24%
    14:00 +31°C° 0 mm 3 mps 756 mmHg 23%
    15:00 +31°C° 0 mm 3 mps 756 mmHg 22%
    16:00 +31°C° 0 mm 3 mps 756 mmHg 21%
    17:00 +29°C° 0 mm 2 mps 756 mmHg 25%
    18:00 +27°C° 0 mm 1 mps 756 mmHg 29%
    19:00 +23°C° 0 mm 0 mps 756 mmHg 32%
    20:00 +24°C° 0 mm 1 mps 756 mmHg 34%
    21:00 +23°C° 0 mm 2 mps 756 mmHg 35%
    22:00 +22°C° 0 mm 3 mps 756 mmHg 37%
    23:00 +21°C° 0 mm 3 mps 756 mmHg 39%

    Tomorrow, 25 August, Friday

    Time Temperature Precipitation Wind Pressure Humidity
    00:00 +21°C° 0 mm 3 mps 757 mmHg 42%
    01:00 +20°C° 0 mm 3 mps 757 mmHg 44%
    02:00 +20°C° 0 mm 3 mps 756 mmHg 46%
    03:00 +19°C° 0 mm 3 mps 756 mmHg 47%
    04:00 +19°C° 0 mm 2 mps 756 mmHg 49%
    05:00 +20°C° 0 mm 3 mps 757 mmHg 46%
    06:00 +21°C° 0 mm 3 mps 757 mmHg 44%
    07:00 +22°C° 0 mm 3 mps 757 mmHg 41%
    08:00 +26°C° 0 mm 3 mps 757 mmHg 36%
    09:00 +29°C° 0 mm 3 mps 757 mmHg 31%
    10:00 +33°C° 0 mm 3 mps 757 mmHg 26%
    11:00 +34°C° 0 mm 3 mps 757 mmHg 24%
    12:00 +36°C° 0 mm 3 mps 756 mmHg 22%
    13:00 +37°C° 0 mm 4 mps 756 mmHg 20%
    14:00 +37°C° 0 mm 3 mps 755 mmHg 19%
    15:00 +37°C° 0 mm 3 mps 755 mmHg 18%
    16:00 +38°C° 0 mm 3 mps 754 mmHg 18%
    17:00 +35°C° 0 mm 3 mps 754 mmHg 21%
    18:00 +33°C° 0 mm 3 mps 754 mmHg 24%
    19:00 +30°C° 0 mm 3 mps 754 mmHg 28%
    20:00 +29°C° 0 mm 3 mps 755 mmHg 30%
    21:00 +28°C° 0 mm 3 mps 755 mmHg 31%
    22:00 +27°C° 0 mm 4 mps 755 mmHg 33%
    23:00 +26°C° 0 mm 3 mps 755 mmHg 34%

    Day after tomorrow, 26 August, Saturday

    Time Temperature Precipitation Wind Pressure Humidity
    00:00 +25°C° 0 mm 3 mps 755 mmHg 35%
    01:00 +25°C° 0 mm 3 mps 755 mmHg 36%
    02:00 +24°C° 0 mm 3 mps 755 mmHg 37%
    03:00 +22°C° 0 mm 3 mps 755 mmHg 38%
    04:00 +22°C° 0 mm 3 mps 755 mmHg 39%
    05:00 +24°C° 0 mm 3 mps 755 mmHg 36%
    06:00 +25°C° 0 mm 3 mps 755 mmHg 34%
    07:00 +26°C° 0 mm 3 mps 755 mmHg 31%
    08:00 +29°C° 0 mm 3 mps 755 mmHg 28%
    09:00 +31°C° 0 mm 3 mps 755 mmHg 24%
    10:00 +35°C° 0 mm 3 mps 756 mmHg 21%
    11:00 +36°C° 0 mm 3 mps 755 mmHg 19%
    12:00 +37°C° 0 mm 3 mps 755 mmHg 18%
    13:00 +38°C° 0 mm 2 mps 754 mmHg 17%
    14:00 +39°C° 0 mm 2 mps 754 mmHg 17%
    15:00 +39°C° 0 mm 2 mps 754 mmHg 16%
    16:00 +39°C° 0 mm 2 mps 753 mmHg 16%
    17:00 +37°C° 0 mm 2 mps 753 mmHg 19%
    18:00 +34°C° 0 mm 2 mps 753 mmHg 21%
    19:00 +31°C° 0 mm 2 mps 753 mmHg 24%
    20:00 +30°C° 0 mm 2 mps 754 mmHg 25%
    21:00 +29°C° 0 mm 2 mps 754 mmHg 26%
    22:00 +28°C° 0 mm 3 mps 754 mmHg 27%
    23:00 +27°C° 0 mm 2 mps 754 mmHg 28%

    27 August, Sunday

    Time Temperature Precipitation Wind Pressure Humidity
    00:00 +26°C° 0 mm 2 mps 754 mmHg 29%
    01:00 +25°C° 0 mm 2 mps 754 mmHg 30%
    02:00 +25°C° 0 mm 2 mps 754 mmHg 31%
    03:00 +24°C° 0 mm 2 mps 754 mmHg 32%
    04:00 +23°C° 0 mm 2 mps 754 mmHg 33%
    05:00 +25°C° 0 mm 2 mps 754 mmHg 32%
    06:00 +26°C° 0 mm 2 mps 754 mmHg 30%
    07:00 +27°C° 0 mm 2 mps 754 mmHg 29%
    08:00 +30°C° 0 mm 2 mps 754 mmHg 25%
    09:00 +33°C° 0 mm 3 mps 754 mmHg 21%
    10:00 +36°C° 0 mm 3 mps 754 mmHg 17%
    11:00 +37°C° 0 mm 3 mps 754 mmHg 16%
    12:00 +38°C° 0 mm 3 mps 754 mmHg 15%
    13:00 +40°C° 0 mm 3 mps 753 mmHg 14%
    14:00 +40°C° 0 mm 3 mps 753 mmHg 14%
    15:00 +40°C° 0 mm 2 mps 753 mmHg 13%
    16:00 +40°C° 0 mm 2 mps 752 mmHg 13%
    17:00 +37°C° 0 mm 2 mps 752 mmHg 16%
    18:00 +35°C° 0 mm 2 mps 752 mmHg 18%
    19:00 +33°C° 0 mm 3 mps 752 mmHg 21%
    20:00 +31°C° 0 mm 3 mps 752 mmHg 22%
    21:00 +30°C° 0 mm 3 mps 752 mmHg 23%
    22:00 +29°C° 0 mm 3 mps 752 mmHg 24%
    23:00 +28°C° 0 mm 2 mps 752 mmHg 25%

    28 August, Monday

    Time Temperature Precipitation Wind Pressure Humidity
    00:00 +27°C° 0 mm 2 mps 752 mmHg 26%
    01:00 +26°C° 0 mm 2 mps 752 mmHg 27%
    02:00 +26°C° 0 mm 2 mps 752 mmHg 28%
    03:00 +25°C° 0 mm 2 mps 752 mmHg 30%
    04:00 +25°C° 0 mm 2 mps 752 mmHg 31%
    05:00 +26°C° 0 mm 2 mps 752 mmHg 31%
    06:00 +27°C° 0 mm 2 mps 753 mmHg 30%
    07:00 +28°C° 0 mm 2 mps 753 mmHg 30%
    08:00 +30°C° 0.1 mm 2 mps 753 mmHg 28%
    09:00 +32°C° 0.1 mm 2 mps 753 mmHg 26%
    10:00 +36°C° 0.1 mm 3 mps 753 mmHg 24%
    11:00 +36°C° 0 mm 3 mps 753 mmHg 25%
    12:00 +36°C° 0 mm 3 mps 752 mmHg 25%
    13:00 +36°C° 0 mm 3 mps 752 mmHg 26%
    14:00 +37°C° 0 mm 4 mps 752 mmHg 26%
    15:00 +37°C° 0 mm 4 mps 752 mmHg 25%
    16:00 +37°C° 0 mm 4 mps 752 mmHg 25%
    17:00 +35°C° 0 mm 3 mps 752 mmHg 29%
    18:00 +33°C° 0 mm 3 mps 752 mmHg 34%
    19:00 +30°C° 0 mm 3 mps 752 mmHg 38%
    20:00 +29°C° 0 mm 3 mps 752 mmHg 41%
    21:00 +28°C° 0 mm 3 mps 753 mmHg 45%
    22:00 +27°C° 0 mm 4 mps 753 mmHg 48%
    23:00 +27°C° 0 mm 3 mps 753 mmHg 51%

    29 August, Tuesday

    Time Temperature Precipitation Wind Pressure Humidity
    00:00 +26°C° 0 mm 3 mps 753 mmHg 54%
    01:00 +25°C° 0 mm 3 mps 753 mmHg 58%
    02:00 +24°C° 0 mm 3 mps 753 mmHg 61%
    03:00 +22°C° 0 mm 3 mps 754 mmHg 64%
    04:00 +22°C° 0 mm 3 mps 754 mmHg 67%
    05:00 +24°C° 0 mm 3 mps 754 mmHg 63%
    06:00 +24°C° 0 mm 3 mps 754 mmHg 59%
    07:00 +25°C° 0 mm 4 mps 755 mmHg 56%
    08:00 +27°C° 0 mm 4 mps 755 mmHg 49%
    09:00 +29°C° 0 mm 3 mps 755 mmHg 43%
    10:00 +30°C° 0 mm 3 mps 755 mmHg 36%
    11:00 +31°C° 0 mm 3 mps 754 mmHg 33%
    12:00 +33°C° 0 mm 3 mps 754 mmHg 30%
    13:00 +34°C° 0 mm 3 mps 754 mmHg 28%
    14:00 +34°C° 0 mm 3 mps 753 mmHg 27%
    15:00 +34°C° 0 mm 3 mps 753 mmHg 27%
    16:00 +35°C° 0 mm 3 mps 753 mmHg 26%
    17:00 +32°C° 0 mm 2 mps 753 mmHg 30%
    18:00 +30°C° 0 mm 2 mps 753 mmHg 34%
    19:00 +28°C° 0 mm 2 mps 753 mmHg 37%
    20:00 +27°C° 0 mm 2 mps 753 mmHg 39%
    21:00 +26°C° 0 mm 2 mps 754 mmHg 41%
    22:00 +25°C° 0 mm 2 mps 754 mmHg 43%
    23:00 +25°C° 0 mm 2 mps 754 mmHg 45%
    Show more